AKST,Max TemperatureF,Mean TemperatureF,Min TemperatureF,Max Dew PointF,MeanDew PointF,Min DewpointF,Max Humidity, Mean Humidity, Min Humidity, Max Sea Level PressureIn, Mean Sea Level PressureIn, Min Sea Level PressureIn, Max VisibilityMiles, Mean VisibilityMiles, Min VisibilityMiles, Max Wind SpeedMPH, Mean Wind SpeedMPH, Max Gust SpeedMPH,PrecipitationIn, CloudCover, Events, WindDirDegrees
2012-2-1,42,40,38,38,37,34,0,0,0,29.95,29.89,29.80,10,9,4,26,9,39,0.02,8,Rain,147
2012-2-2,45,43,40,43,39,30,0,0,0,30.04,29.96,29.87,10,9,2,31,20,52,0.33,8,Rain,139
2012-2-3,52,48,43,43,38,29,0,0,0,30.17,30.06,29.85,10,10,8,31,18,54,0.04,5,Rain,143
2012-2-4,46,37,28,41,34,27,0,0,0,30.21,30.15,30.00,10,8,2,9,3,10,0.04,5,,319
2012-2-5,51,43,35,40,35,30,0,0,0,30.19,30.10,29.98,10,10,9,20,8,29,0.06,6,Rain,129
2012-2-6,47,41,35,37,34,26,0,0,0,30.18,30.04,29.90,10,10,10,10,3,14,0.00,3,,322
2012-2-7,55,46,36,36,31,21,0,0,0,29.88,29.78,29.73,10,10,10,8,3,12,0.00,5,,19
2012-2-8,53,50,46,43,35,21,0,0,0,30.11,29.94,29.76,10,9,4,21,10,29,T,8,Rain,118
2012-2-9,54,47,39,45,39,29,0,0,0,30.07,29.87,29.67,10,8,2,25,11,41,0.12,6,Rain,121
2012-2-10,47,39,30,39,34,27,0,0,0,30.11,30.06,30.00,10,10,10,13,4,17,0.00,2,,360
2012-2-11,45,36,27,42,34,27,0,0,0,30.01,29.92,29.80,10,5,0,29,9,43,0.54,7,Fog-Rain,139
2012-2-12,45,37,29,43,35,28,0,0,0,30.19,29.99,29.81,10,10,10,16,3,23,0.02,4,Rain,255
2012-2-13,40,34,28,34,29,26,0,0,0,30.20,30.06,29.86,10,10,10,12,2,15,0.00,3,,123
2012-2-14,44,35,26,33,28,25,0,0,0,30.14,30.05,29.88,10,10,10,8,1,12,0.00,1,,6
2012-2-15,40,32,24,36,31,24,0,0,0,30.16,30.06,29.99,10,9,6,20,9,26,T,7,Rain-Snow,126
2012-2-16,40,38,36,38,37,34,0,0,0,30.14,30.09,30.01,10,7,2,15,11,20,0.06,8,Rain,123
2012-2-17,44,42,39,38,36,35,0,0,0,30.01,29.80,29.68,10,10,8,15,8,22,0.07,8,Rain,26
2012-2-18,45,40,34,37,33,28,0,0,0,29.92,29.84,29.71,10,10,3,17,6,25,0.11,7,Rain-Snow,305
2012-2-19,39,36,33,36,34,32,0,0,0,29.87,29.74,29.59,10,6,1,17,11,24,1.24,8,Rain-Snow,124
2012-2-20,43,40,37,43,37,33,0,0,0,29.65,29.52,29.45,10,7,2,21,12,30,0.61,8,Rain,150
2012-2-21,40,38,36,38,36,33,0,0,0,29.71,29.61,29.51,10,9,2,13,5,18,0.30,8,Rain,179
2012-2-22,45,40,35,37,34,28,0,0,0,30.30,29.84,29.52,10,10,6,14,4,20,0.10,6,Rain,281
2012-2-23,40,34,27,33,29,25,0,0,0,30.31,30.23,30.00,10,10,10,8,2,9,0.00,3,,119
2012-2-24,36,34,32,29,26,21,0,0,0,29.96,29.66,29.59,10,7,2,13,9,21,0.02,8,Snow,344
2012-2-25,39,36,32,24,20,16,0,0,0,30.35,30.13,29.83,10,10,10,20,11,28,0.00,1,,329
2012-2-26,38,32,26,24,20,16,0,0,0,30.43,30.35,30.17,10,10,10,8,4,10,0.00,5,,70
2012-2-27,35,34,32,34,31,24,0,0,0,30.15,29.78,29.50,10,3,0,29,15,39,0.26,8,Fog-Rain-Snow,131
2012-2-28,41,37,33,34,30,24,0,0,0,29.51,29.48,29.44,10,8,2,21,12,26,0.19,7,Rain-Snow,110
2012-2-29,43,35,27,30,26,23,0,0,0,29.81,29.59,29.45,10,10,10,8,2,10,0.00,3,,316